24/03/2024 08:30:00,0.628
24/03/2024 08:45:00,0.631
24/03/2024 09:00:00,0.629
24/03/2024 09:15:00,0.628
24/03/2024 09:30:00,0.626
24/03/2024 09:45:00,0.63
24/03/2024 10:00:00,0.628
24/03/2024 10:15:00,0.627
24/03/2024 10:30:00,0.628
24/03/2024 10:45:00,0.625
24/03/2024 11:00:00,0.625
24/03/2024 11:15:00,0.625
24/03/2024 11:30:00,0.627
24/03/2024 11:45:00,0.624
24/03/2024 12:00:00,0.624
24/03/2024 12:15:00,0.624
24/03/2024 12:30:00,0.624
24/03/2024 12:45:00,0.623
24/03/2024 13:00:00,0.622
24/03/2024 13:15:00,0.62
24/03/2024 13:30:00,0.622
24/03/2024 13:45:00,0.621
24/03/2024 14:00:00,0.618
24/03/2024 14:15:00,0.619
24/03/2024 14:30:00,0.618
24/03/2024 14:45:00,0.616
24/03/2024 15:00:00,0.616
24/03/2024 15:15:00,0.615
24/03/2024 15:30:00,0.615
24/03/2024 15:45:00,0.614
24/03/2024 16:00:00,0.614
24/03/2024 16:15:00,0.615
24/03/2024 16:30:00,0.613
24/03/2024 16:45:00,0.612
24/03/2024 17:00:00,0.612
24/03/2024 17:15:00,0.611
24/03/2024 17:30:00,0.612
24/03/2024 17:45:00,0.613
24/03/2024 18:00:00,0.612
24/03/2024 18:15:00,0.611
24/03/2024 18:30:00,0.611
24/03/2024 18:45:00,0.61
24/03/2024 19:00:00,0.609
24/03/2024 19:15:00,0.609
24/03/2024 19:30:00,0.608
24/03/2024 19:45:00,0.606
24/03/2024 20:00:00,0.607
24/03/2024 20:15:00,0.605
24/03/2024 20:30:00,0.605
24/03/2024 20:45:00,0.606
24/03/2024 21:00:00,0.606
24/03/2024 21:15:00,0.607
24/03/2024 21:30:00,0.607
24/03/2024 21:45:00,0.604
24/03/2024 22:00:00,0.604
24/03/2024 22:15:00,0.602
24/03/2024 22:30:00,0.602
24/03/2024 22:45:00,0.603
24/03/2024 23:00:00,0.602
24/03/2024 23:15:00,0.604
24/03/2024 23:30:00,0.601
24/03/2024 23:45:00,0.602
25/03/2024 00:00:00,0.601
25/03/2024 00:15:00,0.599
25/03/2024 00:30:00,0.599
25/03/2024 00:45:00,0.6
25/03/2024 01:00:00,0.601
25/03/2024 01:15:00,0.599
25/03/2024 01:30:00,0.6
25/03/2024 01:45:00,0.598
25/03/2024 02:00:00,0.598
25/03/2024 02:15:00,0.6
25/03/2024 02:30:00,0.6
25/03/2024 02:45:00,0.6
25/03/2024 03:00:00,0.598
25/03/2024 03:15:00,0.599
25/03/2024 03:30:00,0.597
25/03/2024 03:45:00,0.599
25/03/2024 04:00:00,0.598
25/03/2024 04:15:00,0.598
25/03/2024 04:30:00,0.598
25/03/2024 04:45:00,0.597
25/03/2024 05:00:00,0.595
25/03/2024 05:15:00,0.596
25/03/2024 05:30:00,0.596
25/03/2024 05:45:00,0.597
25/03/2024 06:00:00,0.596
25/03/2024 06:15:00,0.595
25/03/2024 06:30:00,0.595
25/03/2024 06:45:00,0.595
25/03/2024 07:00:00,0.596
25/03/2024 07:15:00,0.593
25/03/2024 07:30:00,0.595
25/03/2024 07:45:00,0.595
25/03/2024 08:00:00,0.594
25/03/2024 08:15:00,0.594
25/03/2024 08:30:00,0.594
25/03/2024 08:45:00,0.594
25/03/2024 09:00:00,0.593
25/03/2024 09:15:00,0.596
25/03/2024 09:30:00,0.591
25/03/2024 09:45:00,0.592
25/03/2024 10:00:00,0.592
25/03/2024 10:15:00,0.593
25/03/2024 10:30:00,0.594
25/03/2024 10:45:00,0.591
25/03/2024 11:00:00,0.594
25/03/2024 11:15:00,0.592
25/03/2024 11:30:00,0.595
25/03/2024 11:45:00,0.594
25/03/2024 12:00:00,0.593
25/03/2024 12:15:00,0.594
25/03/2024 12:30:00,0.594
25/03/2024 12:45:00,0.595
25/03/2024 13:00:00,0.594
25/03/2024 13:15:00,0.596
25/03/2024 13:30:00,0.599
25/03/2024 13:45:00,0.596
25/03/2024 14:00:00,0.597
25/03/2024 14:15:00,0.6
25/03/2024 14:30:00,0.599
25/03/2024 14:45:00,0.601
25/03/2024 15:00:00,0.603
25/03/2024 15:15:00,0.6
25/03/2024 15:30:00,0.604
25/03/2024 15:45:00,0.602
25/03/2024 16:00:00,0.604
25/03/2024 16:15:00,0.604
25/03/2024 16:30:00,0.604
25/03/2024 16:45:00,0.612
25/03/2024 17:00:00,0.614
25/03/2024 17:15:00,0.616
25/03/2024 17:30:00,0.62
25/03/2024 17:45:00,0.625
25/03/2024 18:00:00,0.626
25/03/2024 18:15:00,0.631
25/03/2024 18:30:00,0.637
25/03/2024 18:45:00,0.64
25/03/2024 19:00:00,0.651
25/03/2024 19:15:00,0.655
25/03/2024 19:30:00,0.665
25/03/2024 19:45:00,0.67
25/03/2024 20:00:00,0.684
25/03/2024 20:15:00,0.696
25/03/2024 20:30:00,0.703
25/03/2024 20:45:00,0.716
25/03/2024 21:00:00,0.723
25/03/2024 21:15:00,0.729
25/03/2024 21:30:00,0.735
25/03/2024 21:45:00,0.738
25/03/2024 22:00:00,0.746
25/03/2024 22:15:00,0.748
25/03/2024 22:30:00,0.747
25/03/2024 22:45:00,0.755
25/03/2024 23:00:00,0.754
25/03/2024 23:15:00,0.755
25/03/2024 23:30:00,0.754
25/03/2024 23:45:00,0.752
26/03/2024 00:00:00,0.749
26/03/2024 00:15:00,0.747
26/03/2024 00:30:00,0.748
26/03/2024 00:45:00,0.745
26/03/2024 01:00:00,0.744
26/03/2024 01:15:00,0.74
26/03/2024 01:30:00,0.736
26/03/2024 01:45:00,0.735
26/03/2024 02:00:00,0.731
26/03/2024 02:15:00,0.723
26/03/2024 02:30:00,0.723
26/03/2024 02:45:00,0.717
26/03/2024 03:00:00,0.715
26/03/2024 03:15:00,0.715
26/03/2024 03:30:00,0.709
26/03/2024 03:45:00,0.707
26/03/2024 04:00:00,0.707
26/03/2024 04:15:00,0.703
26/03/2024 04:30:00,0.701
26/03/2024 04:45:00,0.7
26/03/2024 05:00:00,0.696
26/03/2024 05:15:00,0.692
26/03/2024 05:30:00,0.691
26/03/2024 05:45:00,0.689
26/03/2024 06:00:00,0.688
26/03/2024 06:15:00,0.683
26/03/2024 06:30:00,0.683
26/03/2024 06:45:00,0.68
26/03/2024 07:00:00,0.677
26/03/2024 07:15:00,0.673
26/03/2024 07:30:00,0.675
26/03/2024 07:45:00,0.672
26/03/2024 08:00:00,0.669
26/03/2024 08:15:00,0.668
26/03/2024 08:30:00,0.661
26/03/2024 08:45:00,0.663
26/03/2024 09:00:00,0.663
26/03/2024 09:15:00,0.659
26/03/2024 09:30:00,0.66
26/03/2024 09:45:00,0.659
26/03/2024 10:00:00,0.658
26/03/2024 10:15:00,0.653
26/03/2024 10:30:00,0.653
26/03/2024 10:45:00,0.652
26/03/2024 11:00:00,0.651
26/03/2024 11:15:00,0.651
26/03/2024 11:30:00,0.65
26/03/2024 11:45:00,0.646
26/03/2024 12:00:00,0.647
26/03/2024 12:15:00,0.645
26/03/2024 12:30:00,0.645
26/03/2024 12:45:00,0.644
26/03/2024 13:00:00,0.641
26/03/2024 13:15:00,0.645
26/03/2024 13:30:00,0.641
26/03/2024 13:45:00,0.638
26/03/2024 14:00:00,0.638
26/03/2024 14:15:00,0.636
26/03/2024 14:30:00,0.636
26/03/2024 14:45:00,0.638
26/03/2024 15:00:00,0.636
26/03/2024 15:15:00,0.639
26/03/2024 15:30:00,0.637
26/03/2024 15:45:00,0.639
26/03/2024 16:00:00,0.643
26/03/2024 16:15:00,0.644
26/03/2024 16:30:00,0.644
26/03/2024 16:45:00,0.646
26/03/2024 17:00:00,0.646
26/03/2024 17:15:00,0.651
26/03/2024 17:30:00,0.651
26/03/2024 17:45:00,0.653
26/03/2024 18:00:00,0.654
26/03/2024 18:15:00,0.654
26/03/2024 18:30:00,0.656
26/03/2024 18:45:00,0.66
26/03/2024 19:00:00,0.661
26/03/2024 19:15:00,0.665
26/03/2024 19:30:00,0.668
26/03/2024 19:45:00,0.669
26/03/2024 20:00:00,0.673
26/03/2024 20:15:00,0.674
26/03/2024 20:30:00,0.674
26/03/2024 20:45:00,0.672
26/03/2024 21:00:00,0.677
26/03/2024 21:15:00,0.675
26/03/2024 21:30:00,0.676
26/03/2024 21:45:00,0.674
26/03/2024 22:00:00,0.671
26/03/2024 22:15:00,0.672
26/03/2024 22:30:00,0.672
26/03/2024 22:45:00,0.67
26/03/2024 23:00:00,0.672
26/03/2024 23:15:00,0.67
26/03/2024 23:30:00,0.666
26/03/2024 23:45:00,0.666
27/03/2024 00:00:00,0.663
27/03/2024 00:15:00,0.66
27/03/2024 00:30:00,0.66
27/03/2024 00:45:00,0.659
27/03/2024 01:00:00,0.656
27/03/2024 01:15:00,0.654
27/03/2024 01:30:00,0.656
27/03/2024 01:45:00,0.649
27/03/2024 02:00:00,0.65
27/03/2024 02:15:00,0.65
27/03/2024 02:30:00,0.65
27/03/2024 02:45:00,0.647
27/03/2024 03:00:00,0.646
27/03/2024 03:15:00,0.644
27/03/2024 03:30:00,0.64
27/03/2024 03:45:00,0.639
27/03/2024 04:00:00,0.64
27/03/2024 04:15:00,0.639
27/03/2024 04:30:00,0.636
27/03/2024 04:45:00,0.637
27/03/2024 05:00:00,0.634
27/03/2024 05:15:00,0.635
27/03/2024 05:30:00,0.634
27/03/2024 05:45:00,0.632
27/03/2024 06:00:00,0.632
27/03/2024 06:15:00,0.632
27/03/2024 06:30:00,0.632
27/03/2024 06:45:00,0.63
27/03/2024 07:00:00,0.629
27/03/2024 07:15:00,0.628
27/03/2024 07:30:00,0.627
27/03/2024 07:45:00,0.63
27/03/2024 08:00:00,0.626
27/03/2024 08:15:00,0.63
27/03/2024 08:30:00,0.627
27/03/2024 08:45:00,0.625
27/03/2024 09:00:00,0.626
27/03/2024 09:15:00,0.63
27/03/2024 09:30:00,0.626
27/03/2024 09:45:00,0.627
27/03/2024 10:00:00,0.627
27/03/2024 10:15:00,0.627
27/03/2024 10:30:00,0.627
27/03/2024 10:45:00,0.627
27/03/2024 11:00:00,0.628
27/03/2024 11:15:00,0.629
27/03/2024 11:30:00,0.628
27/03/2024 11:45:00,0.627
27/03/2024 12:00:00,0.628
27/03/2024 12:15:00,0.624
27/03/2024 12:30:00,0.622
27/03/2024 12:45:00,0.621
27/03/2024 13:00:00,0.62
27/03/2024 13:15:00,0.624
27/03/2024 13:30:00,0.622
27/03/2024 13:45:00,0.625
27/03/2024 14:00:00,0.627
27/03/2024 14:15:00,0.627
27/03/2024 14:30:00,0.627
27/03/2024 14:45:00,0.625
27/03/2024 15:00:00,0.625
27/03/2024 15:15:00,0.625
27/03/2024 15:30:00,0.625
27/03/2024 15:45:00,0.628
27/03/2024 16:00:00,0.627
27/03/2024 16:15:00,0.629
27/03/2024 16:30:00,0.629
27/03/2024 16:45:00,0.636
27/03/2024 17:00:00,0.637
27/03/2024 17:15:00,0.639
27/03/2024 17:30:00,0.646
27/03/2024 17:45:00,0.647
27/03/2024 18:00:00,0.655
27/03/2024 18:15:00,0.659
27/03/2024 18:30:00,0.659
27/03/2024 18:45:00,0.666
27/03/2024 19:00:00,0.666
27/03/2024 19:15:00,0.669
27/03/2024 19:30:00,0.672
27/03/2024 19:45:00,0.674
27/03/2024 20:00:00,0.676
27/03/2024 20:15:00,0.678
27/03/2024 20:30:00,0.678
27/03/2024 20:45:00,0.681
27/03/2024 21:00:00,0.683
27/03/2024 21:15:00,0.682
27/03/2024 21:30:00,0.683
27/03/2024 21:45:00,0.687
27/03/2024 22:00:00,0.686
27/03/2024 22:15:00,0.688
27/03/2024 22:30:00,0.688
27/03/2024 22:45:00,0.689
27/03/2024 23:00:00,0.69
27/03/2024 23:15:00,0.694
27/03/2024 23:30:00,0.691
27/03/2024 23:45:00,0.695
28/03/2024 00:00:00,0.693
28/03/2024 00:15:00,0.694
28/03/2024 00:30:00,0.694
28/03/2024 00:45:00,0.69
28/03/2024 01:00:00,0.686
28/03/2024 01:15:00,0.685
28/03/2024 01:30:00,0.687
28/03/2024 01:45:00,0.686
28/03/2024 02:00:00,0.683
28/03/2024 02:15:00,0.68
28/03/2024 02:30:00,0.676
28/03/2024 02:45:00,0.677
28/03/2024 03:00:00,0.673
28/03/2024 03:15:00,0.676
28/03/2024 03:30:00,0.673
28/03/2024 03:45:00,0.667
28/03/2024 04:00:00,0.672
28/03/2024 04:15:00,0.669
28/03/2024 04:30:00,0.669
28/03/2024 04:45:00,0.666
28/03/2024 05:00:00,0.667
28/03/2024 05:15:00,0.666
28/03/2024 05:30:00,0.665
28/03/2024 05:45:00,0.665
28/03/2024 06:00:00,0.664
28/03/2024 06:15:00,0.661
28/03/2024 06:30:00,0.661
28/03/2024 06:45:00,0.663
28/03/2024 07:00:00,0.66
28/03/2024 07:15:00,0.658
28/03/2024 07:30:00,0.659
28/03/2024 07:45:00,0.656
28/03/2024 08:00:00,0.653
28/03/2024 08:15:00,0.652
28/03/2024 08:30:00,0.652
28/03/2024 08:45:00,0.65
28/03/2024 09:00:00,0.649
28/03/2024 09:15:00,0.648
28/03/2024 09:30:00,0.646
28/03/2024 09:45:00,0.646
28/03/2024 10:00:00,0.643
28/03/2024 10:15:00,0.64
28/03/2024 10:30:00,0.64
28/03/2024 10:45:00,0.64
28/03/2024 11:00:00,0.636
28/03/2024 11:15:00,0.639
28/03/2024 11:30:00,0.637
28/03/2024 11:45:00,0.636
28/03/2024 12:00:00,0.634
28/03/2024 12:15:00,0.636
28/03/2024 12:30:00,0.636
28/03/2024 12:45:00,0.635
28/03/2024 13:00:00,0.634
28/03/2024 13:15:00,0.633
28/03/2024 13:30:00,0.636
28/03/2024 13:45:00,0.639
28/03/2024 14:00:00,0.639
28/03/2024 14:15:00,0.642
28/03/2024 14:30:00,0.642
28/03/2024 14:45:00,0.645
28/03/2024 15:00:00,0.65
28/03/2024 15:15:00,0.656
28/03/2024 15:30:00,0.661
28/03/2024 15:45:00,0.667
28/03/2024 16:00:00,0.679
28/03/2024 16:15:00,0.694
28/03/2024 16:30:00,0.694
28/03/2024 16:45:00,0.733
28/03/2024 17:00:00,0.754
28/03/2024 17:15:00,0.774
28/03/2024 17:30:00,0.803
28/03/2024 17:45:00,0.854
28/03/2024 18:00:00,0.917
28/03/2024 18:15:00,0.959
28/03/2024 18:30:00,0.987
28/03/2024 18:45:00,1.013
28/03/2024 19:00:00,1.024
28/03/2024 19:15:00,1.025
28/03/2024 19:30:00,1.022
28/03/2024 19:45:00,1.016
28/03/2024 20:00:00,1.013
28/03/2024 20:15:00,1.015
28/03/2024 20:30:00,1.004
28/03/2024 20:45:00,0.994
28/03/2024 21:00:00,0.974
28/03/2024 21:15:00,0.963
28/03/2024 21:30:00,0.954
28/03/2024 21:45:00,0.938
28/03/2024 22:00:00,0.922
28/03/2024 22:15:00,0.906
28/03/2024 22:30:00,0.906
28/03/2024 22:45:00,0.882
28/03/2024 23:00:00,0.875
28/03/2024 23:15:00,0.857
28/03/2024 23:30:00,0.855
28/03/2024 23:45:00,0.841
29/03/2024 00:00:00,0.834
29/03/2024 00:15:00,0.823
29/03/2024 00:30:00,0.816
29/03/2024 00:45:00,0.811
29/03/2024 01:00:00,0.807
29/03/2024 01:15:00,0.797
29/03/2024 01:30:00,0.789
29/03/2024 01:45:00,0.784
29/03/2024 02:00:00,0.778
29/03/2024 02:15:00,0.775
29/03/2024 02:30:00,0.77
29/03/2024 02:45:00,0.766
29/03/2024 03:00:00,0.762
29/03/2024 03:15:00,0.762
29/03/2024 03:30:00,0.751
29/03/2024 03:45:00,0.751
29/03/2024 04:00:00,0.745
29/03/2024 04:15:00,0.738
29/03/2024 04:30:00,0.738
29/03/2024 04:45:00,0.734
29/03/2024 05:00:00,0.729
29/03/2024 05:15:00,0.727
29/03/2024 05:30:00,0.729
29/03/2024 05:45:00,0.721
29/03/2024 06:00:00,0.72
29/03/2024 06:15:00,0.717
